Time,TemperatureF,DewpointF,PressureIn,WindDirection,WindDirectionDegrees,WindSpeedMPH,WindSpeedGustMPH,Humidity,HourlyPrecipIn,Conditions,Clouds,dailyrainin,SoftwareType,DateUTC
2013-03-19 00:02:00,14.0,10.0,29.66,WNW,286,18.0,30.0,84,0.00,,,0.00,,2013-03-19 05:02:00,
2013-03-19 00:12:00,14.0,10.0,29.66,WNW,286,18.0,30.0,84,0.00,,,0.00,,2013-03-19 05:12:00,
2013-03-19 00:22:00,14.0,10.0,29.66,West,280,19.0,31.0,83,0.00,,,0.00,,2013-03-19 05:22:00,
2013-03-19 00:32:00,14.0,10.0,29.67,West,278,18.0,29.0,83,0.00,,,0.00,,2013-03-19 05:32:00,
2013-03-19 00:42:00,14.0,10.0,29.67,West,278,18.0,29.0,83,0.00,,,0.00,,2013-03-19 05:42:00,
2013-03-19 00:52:00,14.0,10.0,29.67,WNW,283,17.0,31.0,83,0.00,,,0.00,,2013-03-19 05:52:00,
2013-03-19 01:02:00,13.0,9.0,29.67,West,279,18.0,25.0,83,0.00,,,0.00,,2013-03-19 06:02:00,
2013-03-19 01:12:00,13.0,9.0,29.67,West,279,18.0,25.0,83,0.00,,,0.00,,2013-03-19 06:12:00,
2013-03-19 01:22:00,13.0,9.0,29.68,West,272,17.0,26.0,83,0.00,,,0.00,,2013-03-19 06:22:00,
2013-03-19 01:32:00,13.0,9.0,29.68,WNW,288,20.0,27.0,83,0.00,,,0.00,,2013-03-19 06:32:00,
2013-03-19 01:42:00,13.0,9.0,29.68,WNW,288,20.0,27.0,83,0.00,,,0.00,,2013-03-19 06:42:00,
2013-03-19 01:52:00,12.0,7.0,29.68,WNW,294,19.0,31.0,81,0.00,,,0.00,,2013-03-19 06:52:00,
2013-03-19 02:02:00,12.0,7.0,29.69,WNW,296,19.0,28.0,81,0.00,,,0.00,,2013-03-19 07:02:00,
2013-03-19 02:12:00,12.0,7.0,29.69,WNW,296,19.0,28.0,81,0.00,,,0.00,,2013-03-19 07:12:00,
2013-03-19 02:21:00,12.0,7.0,29.69,WNW,296,19.0,28.0,81,0.00,,,0.00,,2013-03-19 07:21:00,
2013-03-19 02:32:00,11.0,6.0,29.69,West,280,16.0,27.0,81,0.00,,,0.00,,2013-03-19 07:32:00,
2013-03-19 02:42:00,11.0,6.0,29.69,West,280,16.0,27.0,81,0.00,,,0.00,,2013-03-19 07:42:00,
2013-03-19 02:52:00,11.0,6.0,29.70,West,278,18.0,27.0,81,0.00,,,0.00,,2013-03-19 07:52:00,
2013-03-19 03:03:00,11.0,6.0,29.70,WNW,294,14.0,30.0,81,0.00,,,0.00,,2013-03-19 08:03:00,
2013-03-19 03:12:00,11.0,6.0,29.70,WNW,294,14.0,30.0,81,0.00,,,0.00,,2013-03-19 08:12:00,
2013-03-19 03:22:00,10.0,5.0,29.71,WNW,303,14.0,25.0,81,0.00,,,0.00,,2013-03-19 08:22:00,
2013-03-19 03:32:00,10.0,5.0,29.71,WNW,288,17.0,23.0,81,0.00,,,0.00,,2013-03-19 08:32:00,
2013-03-19 03:42:00,10.0,5.0,29.71,WNW,288,17.0,23.0,81,0.00,,,0.00,,2013-03-19 08:42:00,
2013-03-19 03:52:00,10.0,5.0,29.72,West,273,12.0,26.0,81,0.00,,,0.00,,2013-03-19 08:52:00,
2013-03-19 04:02:00,10.0,5.0,29.72,WNW,284,19.0,27.0,80,0.00,,,0.00,,2013-03-19 09:02:00,
2013-03-19 04:12:00,10.0,5.0,29.72,WNW,284,19.0,27.0,80,0.00,,,0.00,,2013-03-19 09:12:00,
2013-03-19 04:22:00,10.0,5.0,29.72,WNW,286,16.0,27.0,81,0.00,,,0.00,,2013-03-19 09:22:00,
2013-03-19 04:32:00,10.0,5.0,29.73,WNW,284,15.0,26.0,81,0.00,,,0.00,,2013-03-19 09:32:00,
2013-03-19 04:43:00,10.0,5.0,29.73,WNW,284,15.0,26.0,81,0.00,,,0.00,,2013-03-19 09:43:00,
2013-03-19 04:52:00,10.0,5.0,29.73,WNW,292,15.0,27.0,81,0.00,,,0.00,,2013-03-19 09:52:00,
2013-03-19 05:03:00,10.0,5.0,29.73,WNW,292,15.0,27.0,81,0.00,,,0.00,,2013-03-19 10:03:00,
2013-03-19 05:12:00,10.0,5.0,29.73,WNW,292,15.0,27.0,81,0.00,,,0.00,,2013-03-19 10:12:00,
2013-03-19 05:23:00,9.0,4.0,29.75,WNW,300,14.0,27.0,80,0.00,,,0.00,,2013-03-19 10:23:00,
2013-03-19 05:32:00,9.0,4.0,29.75,West,278,15.0,23.0,80,0.00,,,0.00,,2013-03-19 10:32:00,
2013-03-19 05:42:00,9.0,4.0,29.75,West,278,15.0,23.0,80,0.00,,,0.00,,2013-03-19 10:42:00,
2013-03-19 05:52:00,9.0,4.0,29.76,WNW,300,18.0,23.0,80,0.00,,,0.00,,2013-03-19 10:52:00,
2013-03-19 06:02:00,9.0,4.0,29.77,WNW,296,14.0,21.0,80,0.00,,,0.00,,2013-03-19 11:02:00,
2013-03-19 06:12:00,9.0,4.0,29.77,WNW,296,14.0,21.0,80,0.00,,,0.00,,2013-03-19 11:12:00,
2013-03-19 06:22:00,9.0,4.0,29.78,West,275,15.0,26.0,80,0.00,,,0.00,,2013-03-19 11:22:00,
2013-03-19 06:32:00,8.0,3.0,29.79,WNW,283,18.0,25.0,80,0.00,,,0.00,,2013-03-19 11:32:00,
2013-03-19 06:42:00,8.0,3.0,29.79,WNW,283,18.0,25.0,80,0.00,,,0.00,,2013-03-19 11:42:00,
2013-03-19 06:52:00,8.0,3.0,29.79,West,281,18.0,24.0,80,0.00,,,0.00,,2013-03-19 11:52:00,
2013-03-19 07:02:00,8.0,3.0,29.80,WNW,284,15.0,24.0,80,0.00,,,0.00,,2013-03-19 12:02:00,
2013-03-19 07:12:00,7.0,2.0,29.81,West,281,15.0,21.0,80,0.00,,,0.00,,2013-03-19 12:12:00,
2013-03-19 07:22:00,7.0,2.0,29.81,West,281,15.0,21.0,80,0.00,,,0.00,,2013-03-19 12:22:00,
2013-03-19 07:33:00,7.0,2.0,29.82,WNW,297,15.0,22.0,81,0.00,,,0.00,,2013-03-19 12:33:00,
2013-03-19 07:42:00,7.0,2.0,29.82,WNW,297,15.0,22.0,81,0.00,,,0.00,,2013-03-19 12:42:00,
2013-03-19 07:52:00,7.0,2.0,29.83,WNW,285,17.0,24.0,80,0.00,,,0.00,,2013-03-19 12:52:00,
2013-03-19 08:02:00,7.0,2.0,29.84,WNW,283,16.0,25.0,80,0.00,,,0.00,,2013-03-19 13:02:00,
2013-03-19 08:12:00,7.0,2.0,29.84,WNW,283,16.0,25.0,80,0.00,,,0.00,,2013-03-19 13:12:00,
2013-03-19 08:22:00,7.0,2.0,29.84,West,271,14.0,21.0,80,0.00,,,0.00,,2013-03-19 13:22:00,
2013-03-19 08:32:00,7.0,2.0,29.86,WNW,294,14.0,22.0,79,0.00,,,0.00,,2013-03-19 13:32:00,
2013-03-19 08:42:00,7.0,2.0,29.86,WNW,294,14.0,22.0,79,0.00,,,0.00,,2013-03-19 13:42:00,
2013-03-19 08:52:00,7.0,2.0,29.86,WNW,300,12.0,22.0,79,0.00,,,0.00,,2013-03-19 13:52:00,
2013-03-19 09:02:00,8.0,3.0,29.87,NW,307,14.0,21.0,78,0.00,,,0.00,,2013-03-19 14:02:00,
2013-03-19 09:12:00,8.0,3.0,29.87,NW,307,14.0,21.0,78,0.00,,,0.00,,2013-03-19 14:12:00,
2013-03-19 09:22:00,8.0,2.0,29.88,WNW,286,13.0,20.0,77,0.00,,,0.00,,2013-03-19 14:22:00,
2013-03-19 09:32:00,9.0,3.0,29.88,WNW,298,15.0,25.0,77,0.00,,,0.00,,2013-03-19 14:32:00,
2013-03-19 09:42:00,9.0,3.0,29.88,WNW,298,15.0,25.0,77,0.00,,,0.00,,2013-03-19 14:42:00,
2013-03-19 09:52:00,9.0,3.0,29.88,WNW,284,13.0,25.0,76,0.00,,,0.00,,2013-03-19 14:52:00,
2013-03-19 10:02:00,10.0,3.0,29.89,NW,317,12.0,21.0,74,0.00,,,0.00,,2013-03-19 15:02:00,
2013-03-19 10:12:00,10.0,3.0,29.89,NW,317,12.0,21.0,74,0.00,,,0.00,,2013-03-19 15:12:00,
2013-03-19 10:22:00,11.0,4.0,29.90,West,276,13.0,20.0,73,0.00,,,0.00,,2013-03-19 15:22:00,
2013-03-19 10:33:00,11.0,4.0,29.90,West,276,13.0,20.0,73,0.00,,,0.00,,2013-03-19 15:33:00,
2013-03-19 10:43:00,11.0,4.0,29.90,West,276,13.0,20.0,73,0.00,,,0.00,,2013-03-19 15:43:00,
2013-03-19 10:53:00,12.0,4.0,29.91,WNW,292,20.0,26.0,70,0.00,,,0.00,,2013-03-19 15:53:00,
2013-03-19 11:04:00,13.0,5.0,29.92,West,277,15.0,21.0,69,0.00,,,0.00,,2013-03-19 16:04:00,
2013-03-19 11:13:00,13.0,5.0,29.92,West,277,15.0,21.0,69,0.00,,,0.00,,2013-03-19 16:13:00,
2013-03-19 11:24:00,14.0,5.0,29.92,WNW,295,15.0,23.0,68,0.00,,,0.00,,2013-03-19 16:24:00,
2013-03-19 11:34:00,14.0,5.0,29.93,West,279,13.0,19.0,67,0.00,,,0.00,,2013-03-19 16:34:00,
2013-03-19 11:44:00,14.0,5.0,29.93,West,279,13.0,19.0,67,0.00,,,0.00,,2013-03-19 16:44:00,
2013-03-19 11:53:00,15.0,6.0,29.93,West,261,12.0,20.0,67,0.00,,,0.00,,2013-03-19 16:53:00,
2013-03-19 12:03:00,15.0,6.0,29.93,West,261,12.0,20.0,67,0.00,,,0.00,,2013-03-19 17:03:00,
2013-03-19 12:13:00,16.0,6.0,29.94,WNW,303,13.0,20.0,64,0.00,,,0.00,,2013-03-19 17:13:00,
2013-03-19 12:23:00,16.0,6.0,29.94,WNW,303,13.0,20.0,64,0.00,,,0.00,,2013-03-19 17:23:00,
2013-03-19 12:34:00,16.0,6.0,29.95,West,273,17.0,24.0,64,0.00,,,0.00,,2013-03-19 17:34:00,
2013-03-19 12:44:00,16.0,6.0,29.95,West,273,17.0,24.0,64,0.00,,,0.00,,2013-03-19 17:44:00,
2013-03-19 12:52:00,17.0,7.0,29.95,West,259,13.0,22.0,63,0.00,,,0.00,,2013-03-19 17:52:00,
2013-03-19 13:03:00,17.0,6.0,29.95,WNW,284,17.0,24.0,62,0.00,,,0.00,,2013-03-19 18:03:00,
2013-03-19 13:13:00,17.0,6.0,29.95,WNW,284,17.0,24.0,62,0.00,,,0.00,,2013-03-19 18:13:00,
2013-03-19 13:23:00,18.0,7.0,29.96,WNW,294,16.0,22.0,61,0.00,,,0.00,,2013-03-19 18:23:00,
2013-03-19 13:33:00,18.0,7.0,29.96,WNW,288,16.0,27.0,61,0.00,,,0.00,,2013-03-19 18:33:00,
2013-03-19 13:43:00,18.0,7.0,29.96,WNW,288,16.0,27.0,61,0.00,,,0.00,,2013-03-19 18:43:00,
2013-03-19 13:53:00,18.0,6.0,29.96,West,266,17.0,24.0,60,0.00,,,0.00,,2013-03-19 18:53:00,
2013-03-19 14:02:00,19.0,7.0,29.96,West,279,12.0,28.0,59,0.00,,,0.00,,2013-03-19 19:02:00,
2013-03-19 14:12:00,19.0,7.0,29.96,West,279,12.0,28.0,59,0.00,,,0.00,,2013-03-19 19:12:00,
2013-03-19 14:22:00,19.0,6.0,29.97,WNW,285,13.0,27.0,57,0.00,,,0.00,,2013-03-19 19:22:00,
2013-03-19 14:33:00,20.0,7.0,29.97,WNW,294,17.0,24.0,57,0.00,,,0.00,,2013-03-19 19:33:00,
2013-03-19 14:42:00,20.0,7.0,29.97,WNW,294,17.0,24.0,57,0.00,,,0.00,,2013-03-19 19:42:00,
2013-03-19 14:52:00,20.0,7.0,29.97,NW,311,15.0,22.0,56,0.00,,,0.00,,2013-03-19 19:52:00,
2013-03-19 15:02:00,20.0,7.0,29.96,WNW,292,19.0,26.0,56,0.00,,,0.00,,2013-03-19 20:02:00,
2013-03-19 15:12:00,21.0,8.0,29.97,NW,307,16.0,30.0,56,0.00,,,0.00,,2013-03-19 20:12:00,
2013-03-19 15:22:00,21.0,8.0,29.97,NW,307,16.0,30.0,56,0.00,,,0.00,,2013-03-19 20:22:00,
2013-03-19 15:32:00,21.0,7.0,29.97,WNW,282,12.0,27.0,55,0.00,,,0.00,,2013-03-19 20:32:00,
2013-03-19 15:43:00,21.0,7.0,29.97,WNW,282,12.0,27.0,55,0.00,,,0.00,,2013-03-19 20:43:00,
2013-03-19 15:52:00,21.0,7.0,29.97,WNW,282,12.0,27.0,55,0.00,,,0.00,,2013-03-19 20:52:00,
2013-03-19 16:02:00,21.0,7.0,29.97,West,275,19.0,29.0,55,0.00,,,0.00,,2013-03-19 21:02:00,
2013-03-19 16:12:00,22.0,8.0,29.98,WNW,288,16.0,26.0,53,0.00,,,0.00,,2013-03-19 21:12:00,
2013-03-19 16:22:00,22.0,8.0,29.98,WNW,288,16.0,26.0,53,0.00,,,0.00,,2013-03-19 21:22:00,
2013-03-19 16:33:00,22.0,8.0,29.98,West,264,16.0,27.0,53,0.00,,,0.00,,2013-03-19 21:33:00,
2013-03-19 16:43:00,22.0,8.0,29.98,West,264,16.0,27.0,53,0.00,,,0.00,,2013-03-19 21:43:00,
2013-03-19 16:52:00,22.0,7.0,29.99,West,279,12.0,23.0,52,0.00,,,0.00,,2013-03-19 21:52:00,
2013-03-19 17:03:00,22.0,8.0,30.00,WNW,294,20.0,28.0,53,0.00,,,0.00,,2013-03-19 22:03:00,
2013-03-19 17:12:00,22.0,8.0,30.00,WNW,294,20.0,28.0,53,0.00,,,0.00,,2013-03-19 22:12:00,
2013-03-19 17:23:00,22.0,7.0,30.00,West,269,21.0,26.0,52,0.00,,,0.00,,2013-03-19 22:23:00,
2013-03-19 17:33:00,22.0,7.0,30.01,WNW,285,13.0,26.0,52,0.00,,,0.00,,2013-03-19 22:33:00,
2013-03-19 17:43:00,22.0,7.0,30.01,West,273,17.0,24.0,51,0.00,,,0.00,,2013-03-19 22:43:00,
2013-03-19 17:52:00,22.0,7.0,30.01,West,273,17.0,24.0,51,0.00,,,0.00,,2013-03-19 22:52:00,
2013-03-19 18:02:00,21.0,6.0,30.02,WNW,287,15.0,22.0,51,0.00,,,0.00,,2013-03-19 23:02:00,
2013-03-19 18:12:00,21.0,6.0,30.02,West,281,11.0,20.0,51,0.00,,,0.00,,2013-03-19 23:12:00,
2013-03-19 18:22:00,21.0,6.0,30.02,West,281,11.0,20.0,51,0.00,,,0.00,,2013-03-19 23:22:00,
2013-03-19 18:32:00,21.0,6.0,30.02,West,271,14.0,23.0,52,0.00,,,0.00,,2013-03-19 23:32:00,
2013-03-19 18:42:00,21.0,6.0,30.02,West,271,14.0,23.0,52,0.00,,,0.00,,2013-03-19 23:42:00,
2013-03-19 18:52:00,21.0,6.0,30.03,NW,307,17.0,25.0,52,0.00,,,0.00,,2013-03-19 23:52:00,
2013-03-19 19:02:00,20.0,5.0,30.03,West,271,16.0,25.0,52,0.00,,,0.00,,2013-03-20 00:02:00,
2013-03-19 19:13:00,20.0,5.0,30.03,West,271,16.0,25.0,52,0.00,,,0.00,,2013-03-20 00:13:00,
2013-03-19 19:22:00,19.0,4.0,30.04,West,260,12.0,23.0,52,0.00,,,0.00,,2013-03-20 00:22:00,
2013-03-19 19:33:00,19.0,4.0,30.04,WNW,290,12.0,22.0,52,0.00,,,0.00,,2013-03-20 00:33:00,
2013-03-19 19:42:00,19.0,4.0,30.04,WNW,290,12.0,22.0,52,0.00,,,0.00,,2013-03-20 00:42:00,
2013-03-19 19:52:00,18.0,4.0,30.05,West,259,12.0,27.0,53,0.00,,,0.00,,2013-03-20 00:52:00,
2013-03-19 20:03:00,18.0,4.0,30.05,West,267,12.0,21.0,53,0.00,,,0.00,,2013-03-20 01:03:00,
2013-03-19 20:12:00,18.0,5.0,30.06,West,261,15.0,27.0,55,0.00,,,0.00,,2013-03-20 01:12:00,
2013-03-19 20:22:00,18.0,5.0,30.06,West,261,15.0,27.0,55,0.00,,,0.00,,2013-03-20 01:22:00,
2013-03-19 20:32:00,17.0,4.0,30.06,WNW,290,17.0,23.0,55,0.00,,,0.00,,2013-03-20 01:32:00,
2013-03-19 20:42:00,17.0,4.0,30.06,WNW,290,17.0,23.0,55,0.00,,,0.00,,2013-03-20 01:42:00,
2013-03-19 20:52:00,17.0,4.0,30.06,West,268,19.0,25.0,56,0.00,,,0.00,,2013-03-20 01:52:00,
2013-03-19 21:02:00,16.0,3.0,30.06,West,271,17.0,24.0,56,0.00,,,0.00,,2013-03-20 02:02:00,
2013-03-19 21:12:00,16.0,3.0,30.06,West,271,17.0,24.0,56,0.00,,,0.00,,2013-03-20 02:12:00,
2013-03-19 21:22:00,16.0,3.0,30.06,West,280,15.0,25.0,57,0.00,,,0.00,,2013-03-20 02:22:00,
2013-03-19 21:32:00,15.0,3.0,30.05,WNW,290,18.0,24.0,58,0.00,,,0.00,,2013-03-20 02:32:00,
2013-03-19 21:42:00,15.0,3.0,30.05,WNW,290,18.0,24.0,58,0.00,,,0.00,,2013-03-20 02:42:00,
2013-03-19 21:52:00,15.0,3.0,30.06,WNW,284,20.0,29.0,59,0.00,,,0.00,,2013-03-20 02:52:00,
2013-03-19 22:02:00,14.0,3.0,30.05,WNW,291,16.0,30.0,60,0.00,,,0.00,,2013-03-20 03:02:00,
2013-03-19 22:12:00,13.0,2.0,30.06,West,280,17.0,27.0,60,0.00,,,0.00,,2013-03-20 03:12:00,
2013-03-19 22:22:00,13.0,2.0,30.06,West,280,17.0,27.0,60,0.00,,,0.00,,2013-03-20 03:22:00,
2013-03-19 22:33:00,13.0,2.0,30.06,WNW,286,16.0,28.0,60,0.00,,,0.00,,2013-03-20 03:33:00,
2013-03-19 22:42:00,13.0,2.0,30.06,WNW,286,16.0,28.0,60,0.00,,,0.00,,2013-03-20 03:42:00,
2013-03-19 22:53:00,12.0,1.0,30.06,WNW,290,19.0,27.0,61,0.00,,,0.00,,2013-03-20 03:53:00,
2013-03-19 23:03:00,12.0,1.0,30.06,WNW,300,14.0,25.0,60,0.00,,,0.00,,2013-03-20 04:03:00,
2013-03-19 23:12:00,12.0,1.0,30.06,WNW,300,14.0,25.0,60,0.00,,,0.00,,2013-03-20 04:12:00,
2013-03-19 23:22:00,12.0,1.0,30.06,WNW,300,14.0,25.0,60,0.00,,,0.00,,2013-03-20 04:22:00,
2013-03-19 23:32:00,11.0,0.0,30.07,West,272,16.0,22.0,60,0.00,,,0.00,,2013-03-20 04:32:00,
2013-03-19 23:43:00,11.0,0.0,30.07,West,272,16.0,22.0,60,0.00,,,0.00,,2013-03-20 04:43:00,
2013-03-19 23:53:00,11.0,0.0,30.07,WNW,294,13.0,24.0,59,0.00,,,0.00,,2013-03-20 04:53:00,